London-Corbin, KY

5:49 PM EDT on July 20, 2019 (GMT -0400)
London-Corbin / McKee

Weather History for KLOZ - May, 2019

Change the Weather History Date:

Tuesday, May 14, 2019

  Actual Average Record
Temperature  
Mean Temperature 55 °F 64 °F  
Max Temperature 67 °F 76 °F 88 °F (1998)
Min Temperature 43 °F 53 °F 33 °F (1996)
Degree Days  
Heating Degree Days 10 3  
Month to date heating degree days 34 58  
Since 1 July heating degree days 4014 4159  
Cooling Degree Days 0 3  
Month to date cooling degree days 31 24  
Year to date cooling degree days 43 50  
Growing Degree Days 4 (Base 50)    
Moisture  
Dew Point 45 °F    
Average Humidity 72    
Maximum Humidity 100    
Minimum Humidity 44    
Precipitation  
Precipitation 0.00 in 0.18 in 1.07 in (1968)
Sea Level Pressure  
Sea Level Pressure 30.04 in    
Wind  
Wind Speed 4 mph (North)    
Max Wind Speed 14 mph    
Max Gust Speed 24 mph    
Visibility 10 miles    
Events      
T = Trace of Precipitation, MM = Missing Value Source: NWS Daily Summary

Daily Weather History Graph

Daily Weather History Graph

Search for Another Location

Airport or City:

Astronomy

May. 14, 2019 Rise Set
Actual Time 6:29 AM EDT 8:36 PM EDT
Civil Twilight 6:00 AM EDT 9:05 PM EDT
Nautical Twilight 5:24 AM EDT 9:41 PM EDT
Astronomical Twilight 4:46 AM EDT 10:19 PM EDT
Moon 4:05 PM EDT (5/14) 4:12 AM EDT (5/14)
Length of Visible Light 15h 05m
Length of Day
14h 07m
Waxing Gibbous, 79% of the Moon is Illuminated
May 14
Waxing Gibbous
May 18
Full
May 26
Last Quarter
Jun 3
New
Jun 10
First Quarter

Hourly Weather History & Observations

Time (EDT) Temp. Dew Point Humidity Pressure Visibility Wind Dir Wind Speed Gust Speed Precip Events Conditions
12:53 AM 52.0 °F 46.0 °F 80% 30.01 in 10.0 mi WNW 3.5 mph - N/A   Overcast
1:53 AM 51.1 °F 46.0 °F 83% 30.01 in 10.0 mi Calm Calm - N/A   Mostly Cloudy
2:53 AM 48.9 °F 46.9 °F 93% 30.00 in 10.0 mi Calm Calm - N/A   Scattered Clouds
3:53 AM 46.9 °F 45.0 °F 93% 30.00 in 10.0 mi Calm Calm - N/A   Clear
4:53 AM 46.0 °F 45.0 °F 96% 30.01 in 10.0 mi Calm Calm - N/A   Clear
5:53 AM 44.1 °F 44.1 °F 100% 30.03 in 10.0 mi Calm Calm - N/A   Clear
6:53 AM 43.0 °F 42.1 °F 97% 30.04 in 10.0 mi Calm Calm - N/A   Clear
7:53 AM 48.0 °F 46.9 °F 96% 30.07 in 10.0 mi Calm Calm - N/A   Clear
8:53 AM 53.1 °F 46.0 °F 77% 30.08 in 10.0 mi North 6.9 mph - N/A   Clear
9:53 AM 55.9 °F 46.9 °F 72% 30.09 in 10.0 mi North 9.2 mph - N/A   Clear
10:53 AM 57.9 °F 46.0 °F 65% 30.09 in 10.0 mi NNW 10.4 mph - N/A   Mostly Cloudy
11:53 AM 62.1 °F 45.0 °F 53% 30.08 in 10.0 mi Variable 4.6 mph - N/A   Scattered Clouds
12:53 PM 61.0 °F 43.0 °F 52% 30.07 in 10.0 mi NNW 8.1 mph - N/A   Mostly Cloudy
1:53 PM 62.1 °F 43.0 °F 50% 30.05 in 10.0 mi North 8.1 mph 18.4 mph N/A   Scattered Clouds
2:53 PM 64.0 °F 42.1 °F 45% 30.04 in 10.0 mi North 8.1 mph - N/A   Mostly Cloudy
3:53 PM 64.0 °F 43.0 °F 46% 30.04 in 10.0 mi North 8.1 mph - N/A   Partly Cloudy
4:53 PM 64.0 °F 42.1 °F 45% 30.03 in 10.0 mi NW 6.9 mph - N/A   Overcast
5:53 PM 64.9 °F 42.1 °F 43% 30.01 in 10.0 mi NNW 4.6 mph - N/A   Scattered Clouds
6:53 PM 64.9 °F 42.1 °F 43% 30.01 in 10.0 mi NE 6.9 mph - N/A   Scattered Clouds
7:53 PM 63.0 °F 42.1 °F 46% 30.01 in 10.0 mi NE 5.8 mph - N/A   Clear
8:53 PM 57.9 °F 44.1 °F 60% 30.03 in 10.0 mi Calm Calm - N/A   Clear
9:53 PM 55.0 °F 46.0 °F 72% 30.05 in 10.0 mi Calm Calm - N/A   Clear
10:53 PM 51.1 °F 48.0 °F 89% 30.07 in 10.0 mi Calm Calm - N/A   Partly Cloudy
11:53 PM 50.0 °F 46.9 °F 89% 30.06 in 10.0 mi Calm Calm - N/A   Clear